User: anonymous   Login
Location: Caribou
(46.8667°N, 68.0167°W)
Time: 03:37:18
(UTC-04:00)
Language:

SL-08 RB Rocket - Orbit

View from above orbital plane
View from above orbital plane
View from above satellite
View from above satellite

Ground track
Ground track

The orbit data is extracted from the following two-line orbital elements,

1 26387U 00033D   14305.15097148  .00000693  00000-0  13027-3 0  6520
2 26387 098.0923 011.2883 0027963 138.5851 273.5338 14.67472350767178
Epoch (UTC): 01 November 2014 03:37:23
Eccentricity: 0.0027963
inclination: 98.0923°
perigee height: 649 km
apogee height: 689 km
right ascension of ascending node: 11.2883°
argument of perigee: 138.5851°
revolutions per day: 14.67472350
mean anomaly at epoch: 273.5338°
orbit number at epoch: 76717

The dashed part of the orbit path shows where the satellite is in the earth's shadow,  

DLR